User: anonymous   Login
Location: Squirrel Cove
(50.1074°N, 124.9139°W)
Time: 04:02:09
(UTC-07:00)
Language:

CHALLENGEONE - Orbit

View from above orbital plane
View from above orbital plane
View from above satellite
View from above satellite

Ground track
Ground track

The orbit data is extracted from the following two-line orbital elements,

1 47956U 21022AA  24116.20248132  .00032052  00000-0  13161-2 0  9990
2 47956  97.4667  15.0262 0013608 333.1955  26.8578 15.24060948170301
Epoch (UTC): 25 April 2024 04:51:34
Eccentricity: 0.0013608
inclination: 97.4667°
perigee height: 484 km
apogee height: 503 km
right ascension of ascending node: 15.0262°
argument of perigee: 333.1955°
revolutions per day: 15.24060948
mean anomaly at epoch: 26.8578°
orbit number at epoch: 17030

The dashed part of the orbit path shows where the satellite is in the earth's shadow,  

DLR